Weather 🌤️

Recent data

Temperatures

Wind

Pressure

Humidity & Precipitation

Last data
obsTime qcStatus tempAvg heatindexAvg windspeedAvg windgustAvg winddirAvg pressureAvg humidityAvg precipRate precipTotal
2026-09-01 12:34:55 1 23.5 23.4 2.6 6.9 235 1000.85 55.8 0 0
2026-09-01 12:29:55 1 23.3 23.2 2.3 6.9 223 1000.85 56.8 0 0
2026-09-01 12:24:55 1 23.2 23 4.2 6.9 235 1001.19 57 0 0
2026-09-01 12:19:55 1 23.2 23.1 2.7 6.9 172 1001.19 56.4 0 0
2026-09-01 12:14:54 1 23.2 23.1 3.2 6.9 137 1001.19 56.4 0 0
2026-09-01 12:09:53 1 23.1 22.9 4.3 6.9 192 1001.19 57 0 0
2026-09-01 12:04:49 1 22.9 22.7 4 10.1 215 1001.19 58 0 0
2026-09-01 11:59:55 1 22.7 22.6 2.5 10.1 151 1001.36 58.2 0 0
2026-09-01 11:54:55 1 22.7 22.5 2.7 10.1 208 1001.53 58.6 0 0
2026-09-01 11:49:55 1 22.5 22.3 2.2 10.1 188 1001.53 58.9 0 0
2026-09-01 11:44:55 1 22.4 22.2 2.8 10.1 164 1001.36 59 0 0
2026-09-01 11:39:55 1 22.2 22.1 2.5 10.1 167 1001.53 59.8 0 0

Hourly data

Temperatures

Wind

Pressure

Humidity & Precipitation

Last data
obsTime qcStatus tempAvg heatindexAvg windspeedAvg windgustAvg winddirAvg pressureAvg humidityAvg precipRate precipTotal
2026-09-01 11:59:55 1 22 21.8 3 9.6 218 1001.36 59.9 0 0
2026-09-01 10:59:55 1 19.8 19.8 2.2 5.8 201 1001.53 63.6 0 0
2026-09-01 09:59:55 1 18.3 18.3 1.1 3.9 189 1001.53 66.2 0 0
2026-09-01 08:59:56 1 17.4 17.4 0.4 2.9 184 1001.69 67 0 0
2026-09-01 07:59:56 0 17.2 17.2 0.5 2.8 174 1001.36 66.7 0 0
2026-09-01 06:59:56 0 18 18 0.2 2.8 214 1001.02 65.6 0 0
2026-09-01 05:59:56 0 18.6 18.6 0.4 2.8 177 1001.02 64.1 0 0
2026-09-01 04:59:54 0 19.4 19.4 0.4 3.4 226 1001.36 62.9 0 0
2026-09-01 03:59:52 0 19.8 19.8 1.1 5.6 231 1001.36 61.8 0 0
2026-09-01 02:59:56 0 20.2 20.2 2.1 4 226 1001.36 60.5 0 0
2026-09-01 01:59:55 0 20.7 20.7 0.2 2.6 178 1001.36 58.9 0 0
2026-09-01 00:59:53 0 21.3 21 0.1 6.9 199 1001.02 57.2 0 0
2026-08-31 23:59:51 0 22 21.7 3.7 11.4 232 1001.02 55.1 0 0
2026-08-31 22:59:51 0 22.6 22.4 4.6 13.5 227 1000.68 54 0 0
2026-08-31 21:59:51 0 23.4 23.2 4.9 11.9 227 1000.34 52.8 0 0
2026-08-31 20:59:56 0 24.3 24.1 7.2 16.7 230 999.83 50 0 0
2026-08-31 19:59:56 1 25.2 25 5.4 16.4 226 999.32 47.5 0 0
2026-08-31 18:59:56 1 25.7 25.6 7.6 21.1 234 999.32 46.6 0 0
2026-08-31 17:59:56 1 25.4 25.2 6.1 18.9 234 999.32 47.6 0 0
2026-08-31 16:59:56 1 25.2 25 11 25.7 239 999.32 49 0 0
2026-08-31 15:59:56 1 24.1 23.9 14.5 32.1 237 999.83 52.6 0 0
2026-08-31 14:59:52 1 24 23.8 14.2 28.2 237 1000.17 53.8 0 0
2026-08-31 13:59:56 1 23.8 23.6 10.5 22.4 235 999.83 53.1 0 0
2026-08-31 12:59:56 1 22.9 22.7 10.4 21.7 236 1000.17 56 0 0